User: anonymous   Login
Location: Unspecified
(45.4615°N, 74.0512°W)
Time: 20:33:41
(UTC-04:00)
Language:

CZ-3 Stage 3 - Orbit

View from above orbital plane
View from above orbital plane
View from above satellite
View from above satellite

Ground track
Ground track

The orbit data is extracted from the following two-line orbital elements,

1 14900U 84035B   19108.21527016 -.00000072 +00000-0 +23495-4 0  9994
2 14900 030.5026 180.0370 7135050 349.5791 001.3860 02.33876518230444
Epoch (UTC): 18 April 2019 05:09:59
Eccentricity: 0.7135050
inclination: 30.5026°
perigee height: 490 km
apogee height: 34701 km
right ascension of ascending node: 180.0370°
argument of perigee: 349.5791°
revolutions per day: 2.33876518
mean anomaly at epoch: 1.3860°
orbit number at epoch: 23044

The dashed part of the orbit path shows where the satellite is in the earth's shadow,  

DLR